Location: Hope
(40.9110°N, 74.9680°W)
Time: 03:21:31
(UTC-04:00)

Tiangong 2 - Visible Passes

Search period start: 24 March 2019 00:00
Search period end: 03 April 2019 00:00
Orbit: 380 x 390 km, 42.8° (Epoch: 24 March)

Date Brightness Start Highest point End Pass type
(mag) Time Alt. Az. Time Alt. Az. Time Alt. Az.
24 Mar 3.8 04:59:20 13° SE 04:59:20 13° SE 04:59:47 10° SE visible
29 Mar 3.7 21:19:59 10° SW 21:20:30 14° SW 21:20:30 14° SW visible
30 Mar 2.3 20:20:55 10° SSW 20:23:32 25° SSE 20:24:25 22° ESE visible
31 Mar 1.0 20:57:26 10° WSW 21:00:26 66° S 21:00:26 66° S visible
01 Apr 1.6 19:58:04 10° SW 20:01:03 41° SSE 20:04:02 10° E visible
01 Apr 3.1 21:34:37 10° W 21:36:16 28° W 21:36:16 28° W visible
02 Apr 1.0 20:35:00 10° WSW 20:38:08 84° NNW 20:39:43 26° ENE visible
02 Apr 4.6 22:11:55 10° WNW 22:11:57 10° WNW 22:11:57 10° WNW visible
